Wind_Speed
69 74 73 71 72 72 73 75 77 79 81 82 85 87 89 92 89 91 93 99 101 100 100 102 104 106 103 105 105 104 106 103 94 93 89 89 84 80 74 65 68 76 74 70
74 76 76 76 78 80 80 82 83 83 86 88 89 89 92 92 87 88 95 95 93 94 96 99 103 106 107 106 105 106 103 103 104 101 96 94 92 81 77 74 76 75 70 64
67 75 77 81 81 83 84 85 85 86 87 88 86 90 99 95 87 91 90 88 88 92 94 96 96 99 102 102 102 105 106 104 108 106 100 94 93 84 75 72 75 74 67 68
82 77 72 80 82 83 86 85 86 88 90 92 97 88 95 91 90 95 91 89 86 87 86 83 82 87 90 93 95 99 104 107 107 113 103 92 90 82 69 70 70 69 71 71
84 81 80 76 78 83 87 85 85 86 88 88 89 88 86 86 93 92 90 86 82 80 76 74 72 72 71 74 79 84 90 101 109 111 103 94 88 83 63 68 67 64 69 72
86 83 85 82 79 81 83 84 86 87 88 88 93 85 84 87 87 83 82 81 75 70 69 63 58 58 57 60 66 72 76 86 97 106 97 92 88 83 54 65 68 53 61 70
88 84 85 86 85 84 84 85 87 87 87 85 90 85 83 84 79 77 75 73 64 59 54 54 53 51 50 52 56 61 65 74 82 92 89 83 82 77 64 63 50 98 71 67
86 85 82 83 86 81 80 85 88 85 85 84 85 86 83 79 74 73 71 63 53 48 49 48 46 44 38 41 45 47 52 59 68 78 76 77 75 70 75 68 58 67 72 50
84 79 79 82 86 88 85 86 88 85 84 84 83 83 77 74 71 69 62 53 43 39 37 32 31 36 30 28 29 33 38 48 54 63 67 69 68 62 69 54 62 66 70 52
82 79 78 83 85 84 85 87 89 90 87 82 78 79 71 67 69 59 53 44 38 21 30 31 37 36 30 24 19 22 30 38 42 51 57 64 64 63 69 71 67 74 76 56
76 76 75 77 75 82 86 89 90 87 84 78 75 70 67 62 56 48 44 36 24 22 24 36 28 28 29 20 18 17 26 33 39 46 52 63 67 64 72 77 76 80 86 87
73 72 72 76 80 87 87 87 84 81 75 70 68 62 63 52 47 40 37 25 16 17 27 22 19 29 18 19 16 16 20 26 31 45 53 64 71 76 68 70 80 91 87 99
71 76 79 78 85 83 86 81 77 71 64 65 61 59 54 46 40 36 32 13 11 25 28 27 26 6 13 9 7 12 14 23 32 37 48 58 68 74 77 85 83 80 82 86
58 60 65 75 74 69 66 66 61 60 60 59 59 54 46 40 34 32 26 16 7 21 24 26 10 8 5 10 8 4 9 13 21 29 35 53 66 75 78 83 88 88 90 91
56 58 58 58 56 56 56 51 54 58 60 56 56 46 40 34 29 28 22 17 13 18 30 27 18 12 5 6 7 7 11 16 14 17 26 41 54 69 79 86 88 85 87 90
42 46 46 48 48 45 43 47 54 59 60 56 48 39 36 28 24 22 21 17 18 17 31 26 24 15 10 10 11 11 11 12 19 24 27 26 30 47 61 74 83 90 91 90
47 47 45 38 35 37 47 53 56 59 59 54 42 34 29 26 22 22 23 23 21 19 30 32 22 16 13 13 9 8 14 17 24 27 27 33 37 38 47 53 64 77 89 97
39 37 34 35 34 41 51 55 56 57 56 50 39 33 26 24 23 23 24 29 26 24 22 28 25 17 17 19 15 13 15 23 29 26 31 28 34 35 38 40 47 53 62 64
34 35 37 34 39 46 52 53 56 55 52 45 37 33 29 27 28 26 28 38 32 32 28 25 26 25 22 22 20 19 20 19 29 34 37 35 38 42 44 47 44 47 52 60
35 35 32 37 46 48 52 53 57 55 51 42 38 34 32 30 29 29 28 30 31 33 32 29 28 33 29 29 29 29 28 29 30 32 36 39 45 49 50 52 52 55 56 62
33 30 36 45 51 52 53 55 57 54 51 41 38 36 36 33 31 32 30 30 29 31 34 35 34 33 33 36 36 37 39 40 39 37 39 41 45 46 50 53 62 65 66 66
29 35 43 50 55 55 53 57 56 55 51 43 38 37 36 37 37 32 31 31 31 31 32 41 43 40 43 41 40 39 40 46 47 48 47 49 52 54 55 56 59 61 64 67
32 42 49 53 58 55 56 58 55 55 50 43 39 38 38 40 43 42 38 37 37 34 35 36 42 52 50 48 48 46 46 49 50 53 57 59 61 64 63 62 62 60 62 64
36 45 53 57 55 55 57 55 56 51 46 43 41 39 39 40 45 49 49 46 41 42 41 38 41 41 41 52 58 57 55 55 57 58 62 62 66 69 70 69 69 68 69 70
44 53 54 54 54 57 55 55 51 46 45 44 42 42 42 42 45 50 52 53 53 50 44 45 45 46 48 48 50 52 58 67 66 66 67 70 73 74 76 77 78 81 82 83
49 50 52 55 57 57 56 53 48 46 44 44 44 44 43 44 47 50 52 53 52 51 49 47 46 50 53 52 54 55 59 61 63 69 79 79 79 82 84 84 84 86 87 88
Wind_Direction
262 262 261 265 263 266 267 271 268 268 269 271 274 274 275 274 274 275 275 273 273 272 271 268 266 264 262 264 263 262 263 263 255 255 254 254 258 254 255 258 260 263 265 267
265 264 268 269 272 273 272 272 275 274 274 273 275 277 278 279 282 280 275 276 275 272 269 264 262 261 259 255 256 258 256 256 255 251 251 251 253 258 258 251 253 259 264 263
276 269 264 268 269 271 274 276 276 276 277 278 278 281 284 283 282 280 282 285 283 278 274 271 267 263 260 258 255 254 254 253 253 253 249 248 251 254 254 253 256 257 259 261
283 275 271 268 267 268 270 272 275 277 279 281 283 284 285 286 285 286 289 288 285 282 279 275 272 268 264 261 258 252 250 251 252 254 251 245 247 252 252 249 257 257 257 262
274 274 276 276 272 270 271 274 278 280 282 283 284 287 285 285 287 293 293 291 289 288 288 283 277 273 268 263 259 253 247 245 247 251 251 246 242 247 246 251 253 260 257 262
268 271 274 275 276 275 276 278 278 279 286 289 288 288 289 291 293 295 292 292 292 291 287 285 281 276 271 264 259 253 248 244 242 245 249 247 242 244 239 240 245 267 287 278
265 267 268 272 275 277 278 279 282 284 287 291 295 293 293 297 298 296 295 295 294 291 289 288 286 280 277 270 262 255 248 242 241 240 243 243 241 241 230 234 231 244 270 266
266 269 270 271 273 277 278 283 285 288 294 296 299 299 299 301 301 297 296 294 291 290 290 288 288 288 280 271 264 257 250 244 241 238 237 238 234 229 231 227 209 214 232 264
265 270 270 273 276 280 281 283 287 292 297 299 298 298 302 299 300 300 295 293 293 289 287 294 308 302 293 276 271 255 243 239 236 235 231 231 230 220 226 209 210 216 225 246
263 265 267 269 274 279 282 285 289 294 296 297 298 298 301 301 297 296 292 294 289 292 297 316 314 300 298 296 275 246 233 230 227 228 224 222 224 217 222 216 209 220 221 227
260 265 267 271 273 276 280 286 291 292 296 298 294 300 298 298 294 291 288 289 290 310 303 317 296 301 297 293 273 239 223 222 218 217 214 216 218 217 224 215 205 219 220 216
253 258 260 262 268 273 279 285 289 292 293 293 297 302 298 296 290 288 284 276 295 282 291 294 283 304 284 287 266 224 212 215 204 214 210 211 214 217 207 223 222 221 222 224
252 250 254 263 267 275 278 283 287 289 289 292 301 301 298 290 286 281 275 266 281 268 273 290 283 243 273 274 238 204 207 224 225 223 214 210 213 218 221 225 222 227 225 229
256 250 253 262 269 275 280 284 284 285 290 296 304 302 291 285 278 270 258 253 290 256 254 280 211 233 259 122 116 141 185 199 229 230 218 215 210 215 221 226 232 231 233 236
241 249 256 265 271 274 277 278 280 290 294 302 303 295 284 278 267 255 245 260 288 254 244 256 243 246 156 140 119 99 147 194 202 215 221 217 219 216 219 224 230 235 238 239
241 254 258 259 262 273 277 281 289 292 296 303 301 288 281 272 261 245 247 263 272 262 236 259 251 256 181 158 141 145 163 167 188 195 194 203 226 226 226 229 230 236 241 243
246 248 250 257 264 280 286 287 290 295 299 302 297 284 274 265 255 246 252 259 274 277 242 252 249 241 209 201 208 206 178 169 161 173 184 196 211 220 221 227 233 237 240 245
242 245 250 255 272 282 283 287 293 296 300 302 293 284 275 261 253 250 255 260 267 272 252 249 246 237 226 214 226 208 178 181 176 183 189 201 209 220 219 223 228 235 239 243
237 242 252 266 275 279 283 290 296 297 302 300 289 282 276 262 252 245 245 251 257 260 260 246 243 230 229 220 212 219 215 208 198 207 211 217 222 211 218 220 231 242 243 241
239 249 264 274 277 280 283 290 297 299 303 296 286 279 273 262 259 254 246 246 245 249 247 247 235 228 236 232 226 220 227 226 226 223 222 228 235 232 230 230 235 239 242 244
247 263 275 276 280 281 284 292 296 299 300 292 280 274 271 264 258 254 255 256 254 247 243 239 237 231 234 237 237 234 235 230 230 235 241 244 244 247 244 246 244 245 246 247
258 272 274 279 282 284 287 293 296 297 295 286 278 270 267 263 260 253 250 253 257 253 244 238 236 236 236 239 243 247 246 244 241 237 237 241 246 251 254 257 257 257 254 254
268 273 276 280 282 286 292 296 297 295 291 283 275 268 264 258 256 259 256 255 252 253 254 250 242 240 241 241 242 245 249 250 250 246 241 243 249 251 258 259 258 259 256 256
272 274 277 279 286 291 293 298 296 291 285 279 272 266 260 256 251 253 257 259 255 256 253 252 253 254 251 246 245 245 245 249 253 251 249 254 254 256 259 260 262 262 264 263
276 275 279 287 292 296 300 299 292 286 280 277 270 265 261 255 250 249 252 254 256 256 252 252 252 252 255 256 256 254 251 249 250 249 251 254 257 258 258 259 260 261 262 263
273 284 290 293 296 302 306 295 290 287 279 272 267 263 257 254 251 250 250 251 254 257 258 256 255 257 254 255 256 255 256 257 257 256 252 254 256 257 258 260 260 262 264 265
Height
10615 10611 10613 10614 10612 10613 10611 10608 10610 10611 10611 10611 10605 10601 10591 10582 10592 10594 10583 10575 10573 10572 10568 10566 10564 10561 10563 10559 10568 10575 10571 10583 10593 10596 10607 10610 10621 10629 10640 10647 10650 10650 10656 10660
10595 10598 10599 10597 10595 10595 10595 10593 10593 10593 10592 10594 10588 10583 10567 10562 10575 10567 10553 10553 10552 10543 10532 10528 10525 10524 10527 10534 10533 10539 10548 10550 10555 10563 10580 10589 10600 10616 10621 10630 10634 10636 10644 10649
10582 10579 10587 10579 10581 10580 10575 10575 10575 10576 10572 10571 10570 10567 10545 10539 10550 10537 10530 10524 10515 10502 10500 10497 10498 10495 10495 10500 10510 10514 10515 10523 10522 10531 10551 10572 10579 10594 10607 10619 10623 10629 10635 10636
10564 10562 10567 10564 10566 10565 10559 10562 10556 10555 10555 10554 10542 10551 10525 10519 10519 10508 10502 10494 10486 10476 10470 10468 10468 10464 10467 10472 10477 10484 10488 10491 10498 10494 10521 10549 10560 10576 10592 10605 10611 10618 10623 10627
10545 10548 10547 10548 10547 10548 10543 10541 10539 10538 10533 10534 10524 10522 10515 10509 10496 10482 10471 10465 10460 10450 10446 10440 10438 10438 10439 10440 10442 10447 10458 10460 10467 10468 10493 10523 10541 10558 10582 10593 10601 10603 10607 10609
10525 10531 10530 10530 10531 10530 10528 10525 10522 10521 10517 10514 10501 10503 10492 10485 10478 10464 10452 10442 10437 10430 10420 10418 10417 10413 10413 10413 10412 10417 10426 10432 10439 10445 10467 10495 10526 10541 10564 10571 10586 10597 10596 10597
10508 10514 10514 10514 10514 10515 10513 10508 10506 10503 10501 10500 10479 10473 10474 10465 10452 10442 10435 10424 10421 10414 10407 10403 10397 10394 10393 10391 10391 10393 10399 10406 10415 10426 10448 10477 10502 10524 10540 10555 10579 10580 10608 10597
10493 10494 10495 10500 10495 10497 10498 10492 10488 10487 10483 10478 10464 10454 10453 10441 10434 10426 10417 10411 10407 10400 10395 10391 10386 10381 10378 10375 10374 10376 10383 10391 10400 10411 10436 10459 10481 10502 10518 10539 10563 10575 10601 10599
10476 10478 10481 10480 10478 10477 10479 10476 10473 10470 10467 10460 10451 10443 10437 10424 10418 10410 10402 10398 10395 10392 10386 10382 10377 10371 10369 10366 10364 10366 10370 10374 10384 10396 10421 10442 10463 10483 10495 10518 10540 10559 10571 10580
10459 10459 10465 10464 10464 10464 10462 10461 10457 10454 10451 10445 10436 10424 10421 10414 10402 10398 10390 10387 10386 10383 10380 10374 10369 10364 10360 10359 10357 10359 10360 10362 10372 10384 10407 10427 10445 10464 10478 10498 10510 10531 10548 10560
10442 10444 10448 10448 10449 10449 10450 10445 10446 10440 10435 10429 10423 10417 10404 10401 10392 10388 10382 10381 10377 10375 10374 10370 10365 10361 10356 10355 10353 10355 10354 10356 10364 10374 10393 10412 10430 10446 10462 10480 10497 10506 10521 10530
10426 10431 10434 10434 10438 10434 10437 10436 10431 10427 10422 10414 10409 10404 10391 10388 10381 10379 10375 10375 10371 10373 10370 10366 10363 10357 10353 10352 10350 10352 10354 10357 10359 10371 10381 10394 10412 10430 10443 10461 10475 10487 10498 10502
10409 10418 10420 10423 10424 10427 10424 10424 10418 10413 10409 10403 10398 10389 10381 10377 10373 10371 10369 10369 10367 10368 10366 10363 10360 10357 10353 10350 10349 10350 10353 10357 10362 10369 10375 10389 10403 10416 10427 10435 10447 10460 10471 10477
10397 10405 10408 10410 10413 10415 10414 10411 10406 10400 10397 10391 10384 10376 10369 10366 10364 10364 10363 10362 10362 10363 10362 10361 10359 10357 10353 10349 10348 10350 10352 10355 10360 10366 10374 10381 10391 10405 10417 10425 10432 10444 10451 10454
10388 10392 10397 10400 10401 10401 10402 10400 10394 10388 10384 10380 10373 10366 10361 10358 10357 10357 10356 10357 10357 10359 10359 10359 10358 10356 10353 10352 10349 10353 10353 10354 10358 10363 10370 10378 10386 10394 10403 10411 10421 10428 10433 10439
10379 10383 10386 10387 10390 10391 10390 10388 10383 10377 10372 10369 10363 10356 10352 10351 10351 10351 10351 10351 10353 10355 10355 10355 10355 10354 10353 10353 10352 10353 10355 10357 10359 10361 10365 10373 10380 10387 10397 10406 10411 10415 10420 10426
10369 10372 10376 10378 10382 10382 10377 10375 10371 10366 10360 10356 10351 10347 10344 10344 10345 10345 10346 10346 10348 10350 10352 10352 10352 10352 10352 10352 10353 10354 10355 10357 10358 10363 10366 10371 10374 10379 10384 10391 10397 10403 10405 10408
10361 10364 10367 10372 10373 10373 10368 10363 10358 10356 10350 10345 10341 10338 10337 10337 10338 10339 10340 10342 10344 10344 10347 10348 10349 10350 10350 10351 10352 10354 10356 10358 10360 10362 10364 10367 10370 10374 10378 10382 10385 10387 10390 10391
10354 10358 10361 10363 10364 10364 10356 10353 10348 10344 10340 10334 10331 10329 10328 10329 10330 10331 10333 10335 10338 10340 10342 10343 10345 10346 10348 10349 10350 10351 10353 10356 10357 10360 10362 10364 10367 10368 10370 10372 10375 10378 10380 10380
10348 10352 10353 10352 10353 10355 10347 10342 10338 10332 10329 10325 10321 10320 10319 10321 10322 10324 10325 10327 10330 10333 10336 10338 10340 10341 10343 10345 10346 10348 10349 10351 10353 10354 10355 10358 10359 10362 10363 10364 10365 10365 10366 10366
10343 10343 10343 10342 10340 10340 10336 10331 10326 10322 10318 10314 10312 10310 10309 10311 10313 10316 10318 10320 10321 10324 10328 10331 10334 10336 10337 10338 10340 10341 10343 10343 10344 10346 10348 10348 10349 10350 10350 10351 10351 10351 10350 10349
10334 10335 10334 10331 10327 10327 10324 10319 10314 10309 10305 10302 10301 10299 10299 10300 10302 10305 10308 10310 10312 10314 10317 10320 10323 10325 10329 10330 10331 10332 10333 10334 10334 10335 10335 10336 10336 10336 10335 10335 10334 10334 10333 10333
10327 10327 10325 10321 10317 10316 10312 10306 10299 10294 10291 10289 10289 10288 10288 10289 10291 10293 10295 10298 10301 10303 10306 10308 10311 10315 10317 10318 10320 10322 10323 10323 10323 10323 10322 10322 10321 10320 10319 10317 10317 10316 10316 10316
10318 10318 10312 10310 10307 10304 10298 10292 10285 10280 10277 10276 10275 10275 10276 10277 10279 10281 10283 10285 10288 10290 10293 10295 10298 10300 10302 10304 10306 10307 10308 10309 10309 10309 10309 10308 10307 10304 10302 10301 10299 10298 10297 10296
10309 10304 10300 10298 10295 10289 10284 10276 10269 10266 10263 10261 10261 10261 10262 10264 10266 10268 10270 10272 10273 10276 10280 10282 10284 10286 10287 10288 10288 10289 10289 10290 10290 10290 10289 10288 10287 10286 10284 10281 10280 10278 10275 10273
10297 10293 10289 10284 10281 10275 10268 10260 10255 10250 10248 10246 10245 10246 10247 10248 10250 10253 10255 10257 10260 10263 10266 10268 10269 10270 10271 10272 10270 10271 10271 10270 10270 10269 10267 10264 10262 10260 10258 10258 10257 10255 10251 10248